CW6344 Weather Reports


Display with metric or nautical units.
time (UTC)temp
F
wind
direction
speed
MPH
gust
MPH
rain 1hr
in
rain 24hr
in
rain mn
in
humidity
%
barometer
mb
20260504014500 49 312 0.0 0.0 0.00 0.00 0.00 65 1015.3
20260504013500 50 312 0.0 0.0 0.00 0.00 0.00 66 1015.3
20260504012500 50 312 0.0 0.0 0.00 0.00 0.00 65 1015.2
20260504011500 50 312 0.0 0.0 0.00 0.00 0.00 64 1015.1
20260504010500 50 312 0.0 0.0 0.00 0.00 0.00 63 1015.0
20260504005459 51 312 0.0 0.0 0.00 0.00 0.00 62 1015.0
20260504004500 52 312 0.0 0.0 0.00 0.00 0.00 59 1014.9
20260504003500 52 312 0.0 0.0 0.00 0.00 0.00 56 1014.8
20260504002500 53 312 0.0 0.0 0.00 0.00 0.00 54 1014.7
20260504001500 54 312 0.0 0.0 0.00 0.00 0.00 51 1014.7
20260504000500 55 312 0.0 0.0 0.00 0.00 0.00 50 1014.6
20260503234500 57 312 0.0 0.0 0.00 0.00 0.00 45 1014.4
20260503233500 58 301 0.0 0.0 0.00 0.00 0.00 42 1014.3
20260503232500 59 275 0.0 2.0 0.00 0.00 0.00 37 1014.3
20260503231500 60 206 0.0 1.0 0.00 0.00 0.00 37 1014.3
20260503224445 61 286 0.0 3.0 0.00 0.00 0.00 35 1014.3
20260503223445 61 284 0.0 2.0 0.00 0.00 0.00 36 1014.4
20260503222445 61 262 2.0 3.0 0.00 0.00 0.00 35 1014.3
20260503221445 61 238 3.0 4.0 0.00 0.00 0.00 34 1014.4
20260503220351 61 215 3.0 3.0 0.00 0.00 0.00 34 1014.4
20260503215351 61 267 2.0 9.0 0.00 0.00 0.00 37 1014.4
20260503214351 62 250 2.0 3.0 0.00 0.00 0.00 35 1014.4
20260503213351 62 306 2.0 3.0 0.00 0.00 0.00 35 1014.4
20260503212351 62 211 0.0 7.0 0.00 0.00 0.00 34 1014.4
20260503211351 62 309 3.0 7.0 0.00 0.00 0.00 34 1014.2
20260503210351 62 302 1.0 3.0 0.00 0.00 0.00 36 1014.2
20260503204351 62 281 3.0 3.0 0.00 0.00 0.00 36 1014.1
20260503203351 62 290 1.0 4.0 0.00 0.00 0.00 34 1014.3
20260503202351 63 228 2.0 7.0 0.00 0.00 0.00 34 1014.4
20260503200351 62 277 0.0 2.0 0.00 0.00 0.00 37 1014.7
20260503195351 62 340 2.0 7.0 0.00 0.00 0.00 38 1015.0
20260503194421 61 285 0.0 6.0 0.00 0.00 0.00 34 1015.0
20260503193351 61 294 6.0 6.0 0.00 0.00 0.00 34 1015.1
20260503192351 61 207 2.0 3.0 0.00 0.00 0.00 38 1015.2
20260503191351 61 217 2.0 3.0 0.00 0.00 0.00 37 1015.3
20260503190351 60 181 6.0 6.0 0.00 0.00 0.00 34 1015.4
20260503184351 60 197 3.0 8.0 0.00 0.00 0.00 38 1015.7
20260503183351 61 300 3.0 9.0 0.00 0.00 0.00 39 1015.7
20260503182351 61 297 1.0 9.0 0.00 0.00 0.00 37 1015.6
20260503181351 60 35 4.0 6.0 0.00 0.00 0.00 38 1015.6
20260503180351 60 296 1.0 4.0 0.00 0.00 0.00 39 1015.8
20260503175351 59 339 6.0 9.0 0.00 0.00 0.00 38 1015.9
20260503174351 59 261 3.0 5.0 0.00 0.00 0.00 37 1015.8
20260503173351 58 306 2.0 6.0 0.00 0.00 0.00 40 1015.9
20260503172351 58 233 0.0 3.0 0.00 0.00 0.00 38 1016.1
20260503171351 58 316 2.0 3.0 0.00 0.00 0.00 42 1016.2
20260503170421 58 30 1.0 4.0 0.00 0.00 0.00 38 1016.3
20260503150421 52 321 5.0 7.0 0.00 0.00 0.00 44 1016.7
20260503131352 50 315 1.0 8.0 0.00 0.00 0.00 51 1016.9
20260503130351 49 46 3.0 5.0 0.00 0.00 0.00 52 1016.6
20260503110422 44 286 3.0 3.0 0.00 0.00 0.00 70 1015.7
20260503090352 46 281 0.0 3.0 0.00 0.00 0.00 66 1014.1
20260503081352 47 282 1.0 2.0 0.00 0.00 0.00 61 1013.8
20260503080352 48 283 1.0 1.0 0.00 0.00 0.00 62 1013.6
20260503072422 49 227 0.0 1.0 0.00 0.00 0.00 60 1013.2
20260503071352 49 290 2.0 5.0 0.00 0.00 0.00 60 1013.2
20260503070352 49 302 0.0 0.0 0.00 0.00 0.00 61 1013.0
20260503054352 51 132 0.0 1.0 0.00 0.00 0.00 58 1012.9
20260503053352 52 340 3.0 3.0 0.00 0.00 0.00 57 1013.0
20260503052422 52 197 1.0 3.0 0.00 0.00 0.00 57 1013.0
20260503051352 52 328 1.0 8.0 0.00 0.00 0.00 56 1012.9
20260503050352 53 290 0.0 2.0 0.00 0.00 0.00 57 1013.0
20260503045352 53 256 0.0 2.0 0.00 0.00 0.00 57 1012.9
20260503044452 53 332 2.0 3.0 0.00 0.00 0.00 56 1012.9
20260503043352 53 236 0.0 1.0 0.00 0.00 0.00 55 1012.8
20260503042352 53 286 0.0 3.0 0.00 0.00 0.00 55 1012.6
20260503041352 54 310 1.0 1.0 0.00 0.00 0.00 54 1012.8
20260503040352 54 360 0.0 2.0 0.00 0.00 0.00 55 1012.6
20260503035352 54 279 0.0 3.0 0.00 0.00 0.00 55 1012.6
20260503034352 54 175 1.0 2.0 0.00 0.00 0.00 57 1012.4
20260503033352 53 313 0.0 2.0 0.00 0.00 0.00 60 1012.3
20260503032352 53 20 0.0 0.0 0.00 0.00 0.00 60 1012.4
20260503030352 53 340 0.0 0.0 0.00 0.00 0.00 62 1012.5
20260503025352 53 344 0.0 2.0 0.00 0.00 0.00 62 1012.5
20260503024353 53 5 0.0 0.0 0.00 0.00 0.00 63 1012.4
20260503023352 52 5 0.0 0.0 0.00 0.00 0.00 65 1012.5
20260503022352 52 5 0.0 0.0 0.00 0.00 0.00 68 1012.5
20260503021352 51 5 0.0 0.0 0.00 0.00 0.00 70 1012.5
20260503020352 51 5 0.0 0.0 0.00 0.00 0.00 75 1012.5